When you browse on this site, cookies collect data to enhance your experience and personalize the content and advertising you see.
Visit our Privacy Policy to learn more. By continuing to use the site, you agree to this use of cookies and data.
  • In United Kingdom
  • List of Countries
  • For 7 days
  • Water Temperature
  • Satellite Maps
  • Weather Map
  • Weather Widgets
  • user-avatar
    Login

    Hourly Weather Linz

    Today, 10 December, Monday

    Time Temperature Precipitation Wind Pressure Humidity
    00:00 +5°C° 0.5 mm 5 mps 727 mmHg 86%
    01:00 +5°C° 0.5 mm 5 mps 728 mmHg 85%
    02:00 +3°C° 0.4 mm 5 mps 729 mmHg 84%
    03:00 +3°C° 0.4 mm 6 mps 729 mmHg 83%
    04:00 +3°C° 0.4 mm 6 mps 730 mmHg 82%
    05:00 +3°C° 0.1 mm 6 mps 730 mmHg 82%
    06:00 +2°C° 0.1 mm 6 mps 730 mmHg 83%
    07:00 +2°C° 0.1 mm 6 mps 731 mmHg 83%
    08:00 +2°C° 0.1 mm 6 mps 731 mmHg 80%
    09:00 +2°C° 0.1 mm 6 mps 731 mmHg 78%
    10:00 +2°C° 0.1 mm 6 mps 732 mmHg 76%
    11:00 +2°C° 0.2 mm 6 mps 732 mmHg 74%
    12:00 +2°C° 0.2 mm 6 mps 732 mmHg 72%
    13:00 +3°C° 0.2 mm 6 mps 732 mmHg 70%
    14:00 +2°C° 0.2 mm 6 mps 733 mmHg 72%
    15:00 +2°C° 0.2 mm 5 mps 733 mmHg 74%
    16:00 +1°C° 0.2 mm 5 mps 733 mmHg 76%
    17:00 +1°C° 0.3 mm 4 mps 733 mmHg 80%
    18:00 +1°C° 0.3 mm 4 mps 733 mmHg 84%
    19:00 +1°C° 0.3 mm 4 mps 733 mmHg 87%
    20:00 0°C° 0.7 mm 4 mps 733 mmHg 87%
    21:00 0°C° 0.7 mm 4 mps 733 mmHg 86%
    22:00 0°C° 0.7 mm 4 mps 733 mmHg 85%
    23:00 0°C° 0.1 mm 4 mps 733 mmHg 86%

    Tomorrow, 11 December, Tuesday

    Time Temperature Precipitation Wind Pressure Humidity
    00:00 -1°C° 0.1 mm 4 mps 733 mmHg 86%
    01:00 -1°C° 0.1 mm 5 mps 734 mmHg 86%
    02:00 -1°C° 0.2 mm 5 mps 733 mmHg 86%
    03:00 -1°C° 0.2 mm 5 mps 733 mmHg 86%
    04:00 -2°C° 0.2 mm 6 mps 733 mmHg 86%
    05:00 -2°C° 0.3 mm 6 mps 733 mmHg 86%
    06:00 -2°C° 0.3 mm 6 mps 733 mmHg 86%
    07:00 -2°C° 0.3 mm 6 mps 733 mmHg 86%
    08:00 -2°C° 0.3 mm 6 mps 733 mmHg 86%
    09:00 -1°C° 0.3 mm 6 mps 733 mmHg 85%
    10:00 -1°C° 0.3 mm 6 mps 734 mmHg 85%
    11:00 -1°C° 0.3 mm 6 mps 733 mmHg 83%
    12:00 -1°C° 0.3 mm 7 mps 733 mmHg 82%
    13:00 0°C° 0.3 mm 7 mps 733 mmHg 81%
    14:00 -1°C° 0.2 mm 7 mps 733 mmHg 82%
    15:00 -1°C° 0.2 mm 6 mps 733 mmHg 83%
    16:00 -1°C° 0.2 mm 6 mps 733 mmHg 83%
    17:00 -1°C° 0.3 mm 6 mps 734 mmHg 84%
    18:00 -1°C° 0.3 mm 6 mps 734 mmHg 85%
    19:00 -1°C° 0.3 mm 6 mps 734 mmHg 86%
    20:00 -1°C° 0.5 mm 6 mps 734 mmHg 87%
    21:00 -2°C° 0.5 mm 6 mps 734 mmHg 87%
    22:00 -2°C° 0.5 mm 6 mps 734 mmHg 88%
    23:00 -1°C° 0.6 mm 5 mps 734 mmHg 89%

    Day after tomorrow, 12 December, Wednesday

    Time Temperature Precipitation Wind Pressure Humidity
    00:00 -1°C° 0.6 mm 5 mps 735 mmHg 89%
    01:00 -1°C° 0.6 mm 5 mps 735 mmHg 90%
    02:00 -1°C° 0.7 mm 5 mps 735 mmHg 91%
    03:00 -1°C° 0.7 mm 4 mps 735 mmHg 91%
    04:00 -1°C° 0.7 mm 4 mps 735 mmHg 92%
    05:00 -2°C° 0.5 mm 4 mps 735 mmHg 92%
    06:00 -1°C° 0.5 mm 3 mps 736 mmHg 93%
    07:00 -1°C° 0.5 mm 3 mps 736 mmHg 93%
    08:00 -1°C° 0.3 mm 3 mps 736 mmHg 93%
    09:00 -1°C° 0.3 mm 3 mps 736 mmHg 93%
    10:00 +1°C° 0.3 mm 2 mps 736 mmHg 92%
    11:00 +1°C° 0.2 mm 2 mps 736 mmHg 92%
    12:00 +1°C° 0.2 mm 2 mps 735 mmHg 91%
    13:00 +1°C° 0.2 mm 2 mps 735 mmHg 91%
    14:00 +1°C° 0.1 mm 2 mps 735 mmHg 92%
    15:00 +1°C° 0.1 mm 1 mps 735 mmHg 93%
    16:00 +1°C° 0.1 mm 1 mps 735 mmHg 95%
    17:00 0°C° 0 mm 1 mps 735 mmHg 95%
    18:00 -1°C° 0 mm 0 mps 735 mmHg 95%
    19:00 -2°C° 0 mm 0 mps 735 mmHg 95%
    20:00 -1°C° 0 mm 1 mps 735 mmHg 94%
    21:00 -1°C° 0 mm 1 mps 736 mmHg 94%
    22:00 -2°C° 0 mm 1 mps 736 mmHg 93%
    23:00 -2°C° 0 mm 1 mps 736 mmHg 93%

    13 December, Thursday

    Time Temperature Precipitation Wind Pressure Humidity
    00:00 -3°C° 0 mm 1 mps 735 mmHg 92%
    01:00 -3°C° 0 mm 1 mps 735 mmHg 92%
    02:00 -3°C° 0 mm 1 mps 735 mmHg 91%
    03:00 -4°C° 0 mm 1 mps 735 mmHg 91%
    04:00 -4°C° 0 mm 1 mps 735 mmHg 90%
    05:00 -4°C° 0 mm 1 mps 734 mmHg 90%
    06:00 -4°C° 0 mm 1 mps 734 mmHg 89%
    07:00 -4°C° 0 mm 1 mps 734 mmHg 89%
    08:00 -3°C° 0 mm 1 mps 734 mmHg 87%
    09:00 -2°C° 0 mm 1 mps 734 mmHg 86%
    10:00 -3°C° 0 mm 2 mps 734 mmHg 84%
    11:00 -2°C° 0 mm 2 mps 733 mmHg 84%
    12:00 -1°C° 0 mm 2 mps 732 mmHg 83%
    13:00 0°C° 0 mm 3 mps 732 mmHg 82%
    14:00 -1°C° 0 mm 2 mps 731 mmHg 85%
    15:00 -1°C° 0 mm 2 mps 731 mmHg 87%
    16:00 -2°C° 0 mm 2 mps 731 mmHg 90%
    17:00 -2°C° 0 mm 2 mps 731 mmHg 90%
    18:00 -3°C° 0 mm 2 mps 731 mmHg 90%
    19:00 -3°C° 0 mm 2 mps 731 mmHg 91%
    20:00 -4°C° 0 mm 2 mps 731 mmHg 90%
    21:00 -4°C° 0 mm 2 mps 731 mmHg 90%
    22:00 -4°C° 0 mm 2 mps 731 mmHg 90%
    23:00 -2°C° 0 mm 1 mps 730 mmHg 90%

    14 December, Friday

    Time Temperature Precipitation Wind Pressure Humidity
    00:00 -2°C° 0 mm 1 mps 730 mmHg 90%
    01:00 -2°C° 0 mm 1 mps 730 mmHg 91%
    02:00 -2°C° 0 mm 1 mps 730 mmHg 91%
    03:00 -2°C° 0 mm 1 mps 730 mmHg 91%
    04:00 -2°C° 0 mm 1 mps 730 mmHg 91%
    05:00 -2°C° 0 mm 1 mps 730 mmHg 90%
    06:00 -2°C° 0 mm 1 mps 730 mmHg 90%
    07:00 -3°C° 0 mm 0 mps 730 mmHg 90%
    08:00 -2°C° 0 mm 0 mps 731 mmHg 88%
    09:00 -1°C° 0 mm 0 mps 731 mmHg 87%
    10:00 0°C° 0 mm 0 mps 732 mmHg 85%
    11:00 +1°C° 0 mm 0 mps 731 mmHg 85%
    12:00 +1°C° 0 mm 0 mps 731 mmHg 84%
    13:00 +2°C° 0 mm 0 mps 731 mmHg 84%
    14:00 +1°C° 0.1 mm 0 mps 731 mmHg 87%
    15:00 +1°C° 0.1 mm 0 mps 732 mmHg 90%
    16:00 0°C° 0.1 mm 0 mps 732 mmHg 92%
    17:00 0°C° 0.1 mm 0 mps 732 mmHg 93%
    18:00 0°C° 0.1 mm 0 mps 732 mmHg 93%
    19:00 0°C° 0.1 mm 0 mps 732 mmHg 94%
    20:00 0°C° 0.1 mm 0 mps 733 mmHg 94%
    21:00 -1°C° 0.1 mm 0 mps 733 mmHg 94%
    22:00 -1°C° 0.1 mm 0 mps 733 mmHg 94%
    23:00 -1°C° 0.1 mm 0 mps 733 mmHg 94%

    15 December, Saturday

    Time Temperature Precipitation Wind Pressure Humidity
    00:00 0°C° 0.1 mm 0 mps 733 mmHg 94%
    01:00 0°C° 0.1 mm 0 mps 733 mmHg 94%
    02:00 0°C° 0.1 mm 0 mps 733 mmHg 94%
    03:00 0°C° 0.1 mm 0 mps 733 mmHg 94%
    04:00 0°C° 0.1 mm 0 mps 733 mmHg 94%
    05:00 0°C° 0.1 mm 0 mps 733 mmHg 94%
    06:00 0°C° 0.1 mm 0 mps 733 mmHg 94%
    07:00 0°C° 0.1 mm 0 mps 734 mmHg 93%
    08:00 +1°C° 0 mm 0 mps 734 mmHg 93%
    09:00 +1°C° 0 mm 0 mps 734 mmHg 93%
    10:00 +2°C° 0 mm 0 mps 734 mmHg 93%
    11:00 +2°C° 0 mm 0 mps 734 mmHg 93%
    12:00 +3°C° 0 mm 0 mps 734 mmHg 94%
    13:00 +3°C° 0 mm 0 mps 734 mmHg 94%
    14:00 +2°C° 0 mm 0 mps 734 mmHg 94%
    15:00 +2°C° 0 mm 0 mps 734 mmHg 95%
    16:00 +1°C° 0 mm 0 mps 734 mmHg 95%
    17:00 +1°C° 0.1 mm 0 mps 734 mmHg 95%
    18:00 +1°C° 0.1 mm 0 mps 735 mmHg 94%
    19:00 +2°C° 0.1 mm 1 mps 735 mmHg 94%
    20:00 +2°C° 0.2 mm 1 mps 735 mmHg 94%
    21:00 +2°C° 0.2 mm 1 mps 735 mmHg 94%
    22:00 +2°C° 0.2 mm 1 mps 735 mmHg 94%
    23:00 +2°C° 0.4 mm 1 mps 735 mmHg 95%
    Show more